Taurus 1
1 44530U 19059C   25017.83478151  .00013155  00000-0  26209-2 0  9998
2 44530  98.5901 150.9874 0009998 117.8768 242.3446 14.62113893283058
Duchifat 3
1 44854U 19089C   25017.77446806  .00042144  00000-0  13466-2 0  9996
2 44854  36.9481 172.9461 0009717  85.3444 274.8417 15.31478235280934
TO-108
1 44881U 19093C   25017.87903958  .00002096  00000-0  25168-3 0  9993
2 44881  97.8082  96.4724 0013576 345.5300  14.5525 14.85004075274891
FloripaSat 1
1 44885U 19093G   25017.79071528  .00010370  00000-0  93908-3 0  9998
2 44885  97.8261 105.3539 0010414 328.9290  31.1313 14.95533558275388
RS-44
1 44909U 19096E   25017.56148352  .00000017  00000-0  30456-4 0  9990
2 44909  82.5244 322.3202 0216319 270.0446  87.5869 12.79737785236394
UPMSat 2
1 46276U 20061E   25017.47251771  .00043399  00000-0  77341-3 0  9996
2 46276  97.2672  89.0104 0001711  82.5895 277.5551 15.49983322243174
AmicalSat
1 46287U 20061R   25010.85863821  .11283921  24654-5  56408-3 0  9994
2 46287  97.2840  89.8720 0009935 281.1985  78.8199 16.41970930241877
SALSAT
1 46495U 20068K   25017.47195220  .00011939  00000-0  57090-3 0  9996
2 46495  97.8450 349.4106 0010733 303.4778  56.5429 15.19112521236770
CubeSX-Sirius-HSE
1 47951U 21022V   25017.88131821  .00074150  00000-0  14096-2 0  9999
2 47951  97.4374 284.2853 0012277  87.3432 272.9224 15.47915354211501
CubeSX-HSE
1 47952U 21022W   25017.86863236  .00069372  00000-0  13072-2 0  9993
2 47952  97.4372 284.4352 0012294  86.9324 273.3333 15.48188681211513
KSU-Cubesat
1 47954U 21022Y   25017.72032097  .00146830  00000-0  16767-2 0  9992
2 47954  97.4366 287.6387 0011106  81.0948 279.1567 15.61639761211428
GRBAlpha
1 47959U 21022AD  25017.82824522  .00072080  00000-0  13618-2 0  9997
2 47959  97.4374 284.5587 0012039  86.8096 273.4531 15.48105321210335
Orbicraft-Zorkiy
1 47960U 21022AE  25017.86463022  .00105377  00000-0  14843-2 0  9994
2 47960  97.4372 287.2682 0011377  82.4296 277.8251 15.56201525211171
TUBIN
1 48900U 21059X   25017.80190021  .00040808  00000-0  85376-3 0  9996
2 48900  97.6635 177.2422 0005383  43.0765 317.0903 15.45343099197887
LEDSAT
1 49069U 21073D   25017.75730341  .00047365  00000-0  11237-2 0  9997
2 49069  97.4095  95.3997 0013083 237.4692 122.5291 15.41485953189302
CUTE
1 49263U 21088D   25017.72754175  .00051686  00000-0  13614-2 0  9999
2 49263  97.4695  90.4829 0010253  46.5839 313.6258 15.38308083182394
TeikyoSat 4
1 49396U 21102B   25017.60844458  .00003909  00000-0  26816-3 0  9998
2 49396  97.4309  61.1254 0011410 263.2669  96.7260 15.06527213175011
Z-Sat
1 49399U 21102E   25017.87499841  .00008120  00000-0  47093-3 0  9992
2 49399  97.4021  63.6879 0017569 236.1432 123.8127 15.12291637175393
KOSEN 1
1 49402U 21102H   25017.90287548  .00010807  00000-0  54759-3 0  9992
2 49402  97.3938  66.1593 0015951 213.0564 146.9674 15.17037641175636
HO-113
1 50466U 21131B   25017.89656791  .00001154  00000-0  37687-3 0  9990
2 50466  98.5171 107.9729 0004005 190.4070 169.7036 14.40456444160903
IRIS-A
1 51044U 22002BN  25017.42282399  .00072690  00000-0  11507-2 0  9994
2 51044  97.3518  91.6210 0003924 352.7953   7.3243 15.53181028167401
Foresail-1
1 52766U 22057AL  25017.83501610  .00065669  00000-0  10420-2 0  9992
2 52766  97.5966 157.6051 0005657  77.5910 282.5975 15.53135089147502
SNUGLITE 2
1 52899U 22065F   25017.87874152  .00002659  00000-0  53417-3 0  9990
2 52899  98.1448 161.5066 0007313 193.3194 166.7816 14.62449023135625
IO-117
1 53106U 22080B   25013.55270770 -.00000003  00000-0  00000+0 0  9994
2 53106  70.1424 119.4379 0008206  58.9554 301.1910  6.42557525 58785
FO-118
1 54684U 22167C   25017.90407332  .00201825  00000-0  17474-2 0  9991
2 54684  97.6116 178.7316 0002341  56.1414 304.0069 15.68533546117437
SO-120
1 56992U 23084BU  25017.81131204  .00331275  00000-0  20595-2 0  9997
2 56992  97.5303 150.9522 0008530 309.4357  50.6152 15.76005070 89301
UmKA 1 (RS40S)
1 57172U 23091G   25017.92152341  .00009756  00000-0  56164-3 0  9991
2 57172  97.5813  74.1447 0016704 105.2037 255.1042 15.12522457 85893
CubeBel-2 (EU11S)
1 57175U 23091K   25017.92568981  .00014128  00000-0  75697-3 0  9996
2 57175  97.5814  74.5880 0014608 114.3645 245.9114 15.15021314 85929
VERONIKA
1 58261U 23174F   25017.80221710  .00058576  00000-0  14222-2 0  9999
2 58261  97.4340  98.9328 0008009 200.0329 160.0604 15.40787847 66519
KAFASAT
1 58317U 23174BP  25017.85669709  .00131758  00000-0  19389-2 0  9993
2 58317  97.4243 101.5800 0005400 178.0163 182.1113 15.54969590 66715
ENSO
1 58470U 23185J   25017.90467069  .00043954  00000-0  11314-2 0  9996
2 58470  97.3960  90.1689 0008515 233.1389 126.9076 15.39072069 62978
EIRSAT-1
1 58472U 23185L   25017.85907646  .00054458  00000-0  12593-2 0  9993
2 58472  97.3955  90.6479 0007895 233.2723 126.7799 15.42280247 63007
SONATE-2
1 59112U 24043Q   25017.35323736  .00020873  00000-0  75448-3 0  9999
2 59112  97.4962 146.5985 0011621 263.3293  96.6624 15.28418071 48400
MO-122
1 60209U 24125G   25017.85226697  .00024497  00000-0  87415-3 0  9995
2 60209  97.2951 231.6154 0020904 290.5645  69.3352 15.28657390 30096
GRBBeta
1 60237U 24128C   25017.56834900  .00006109  00000-0  49268-3 0  9993
2 60237  61.9911 217.4048 0035971  23.8876 336.3873 15.00418625 28726
Curium One
1 60242U 24128H   25017.90943271  .00010378  00000-0  80338-3 0  9995
2 60242  61.9813 216.0662 0035866  17.8730 342.3612 15.01435532 28786
ROBUSTA-3A
1 60243U 24128J   25017.27477124  .00007222  00000-0  56969-3 0  9992
2 60243  61.9878 218.6809 0033975  15.3110 344.9000 15.01118305 28687
CatSat
1 60246U 24125J   25017.57356013  .00016266  00000-0  61596-3 0  9998
2 60246  97.2745 231.8691 0045054 241.8577 117.8106 15.26023770 28148
AO-123
1 61781U 24199AY  25017.84332252  .00013843  00000-0  55595-3 0  9993
2 61781  97.3760 247.4925 0017063 348.9033  11.1826 15.24933524 55105
POEM 4 (BGS ARPIT)
1 62461U 24253C   25017.77094531  .00099677  00000-0  65850-3 0  9991
2 62461  55.2212 169.0452 0005678 325.6157  34.4522 15.74857026  2838
